Vorticity
7 6 5 4 3 3 2 3 3 2 2 2 1 2 1 2 2 3 1 1 4 4 5 6 9 12 9 6 8 8 6 5 4 5 5 5 5 7 7 7 6 6 6
3 3 3 2 2 2 3 3 2 3 4 4 4 5 4 5 5 3 4 4 0 3 5 5 5 7 9 11 8 8 9 7 6 5 4 4 4 4 5 3 6 6 5
3 2 2 2 2 3 4 4 5 5 10 10 9 11 11 10 9 8 9 10 10 9 4 4 4 5 6 8 10 8 6 4 6 6 7 8 7 8 6 5 6 5 5
3 4 6 7 8 11 12 13 13 13 9 6 5 7 9 11 12 15 16 17 17 13 9 8 5 5 6 5 5 8 9 9 9 9 7 10 14 8 3 3 5 5 6
10 9 8 7 7 7 6 5 5 6 13 19 17 11 9 9 4 1 1 4 5 5 8 15 11 7 7 7 5 5 7 7 7 14 15 13 5 7 8 1 5 15 5
5 10 14 14 12 11 14 17 19 23 12 3 7 3 1 8 7 6 8 8 7 5 5 5 8 12 7 1 6 7 25 -9 28 7 16 6 17 7 7 9 10 11 1
6 4 5 7 10 14 16 22 17 -1 5 6 0 14 9 10 13 7 7 9 10 20 12 8 10 5 11 10 -1 2 -41 10 -12 17 1 5 20 26 16 17 38 15 19
22 25 25 27 29 30 13 10 -4 3 5 0 11 16 17 14 14 11 10 12 39 28 23 13 13 11 7 8 11 1 12 18 -15 47 14 18 -11 18 -5 9 29 37 7
22 19 15 12 7 6 3 7 4 4 10 16 12 6 14 17 -1 6 21 41 31 31 32 22 21 17 10 7 9 7 1 17 26 14 -3 -8 13 19 -2 7 18 -17 13
4 7 10 14 9 10 8 6 4 16 6 12 10 17 8 11 11 7 41 34 35 23 16 31 25 20 20 8 9 8 -1 21 17 -23 -34 19 5 8 9 5 1 -1 11
13 13 10 8 10 10 11 11 16 7 10 15 12 7 11 7 12 33 20 44 25 22 24 14 1 3 54 34 16 22 9 18 2 55 -4 4 22 6 17 3 10 14 7
12 18 18 16 13 6 12 15 18 20 20 8 10 9 2 7 12 27 26 36 37 12 20 38 -60 26 52 41 25 -20 23 24 3 -12 -10 12 9 0 -9 15 10 -2 20
15 13 4 8 16 20 22 19 15 18 21 21 12 16 20 9 17 33 26 34 22 12 33 -8 9 -29 11 -9 10 28 7 -4 11 16 16 -9 -10 0 14 5 7 15 4
17 17 26 16 11 7 5 2 2 -1 2 8 9 4 17 8 12 24 16 21 14 16 17 25 16 30 12 48 27 23 34 40 29 21 6 11 14 14 5 5 9 16 16
22 19 1 3 6 6 6 6 8 8 8 11 10 12 1 12 11 19 19 16 13 11 12 12 13 13 11 14 14 16 -29 15 4 4 8 9 12 19 28 25 18 8 -3
14 2 -2 1 4 2 7 6 5 7 6 8 8 10 4 6 12 15 16 19 23 13 8 6 6 8 10 11 15 14 11 14 15 16 13 14 9 -15 4 14 21 4 7
11 -1 3 2 1 4 6 6 8 7 5 5 7 6 6 10 5 -2 15 13 15 22 20 16 14 12 13 13 14 14 11 14 11 12 5 9 12 5 9 8 11 15 17
6 -3 -2 3 3 4 8 7 8 8 7 7 8 8 6 6 6 7 5 8 11 12 13 11 18 26 25 13 9 10 12 19 15 14 17 12 10 11 9 9 8 7 9
-3 5 0 4 2 7 7 8 10 8 6 7 7 9 9 9 7 6 6 8 3 4 5 15 17 17 17 26 26 16 14 13 14 13 14 15 13 14 16 17 12 16 16
6 3 4 5 8 7 6 4 2 9 13 11 8 9 15 17 15 11 8 7 7 6 6 3 6 1 4 14 16 18 16 15 12 13 12 6 6 16 24 10 13 9 16
5 5 6 6 6 3 4 9 14 12 6 8 5 -2 6 12 11 15 17 13 10 9 8 8 7 6 4 4 4 2 1 0 -0 1 3 10 13 4 -1 2 3 4 4
9 9 5 4 4 4 12 12 4 1 3 3 4 4 5 4 1 3 12 10 13 11 11 10 8 9 10 10 8 5 5 5 5 5 5 5 5 6 7 8 9 9 7
3 5 5 8 12 14 10 1 -0 2 4 4 3 2 5 6 7 2 1 2 13 1 -0 7 14 13 13 12 10 8 8 9 9 11 10 9 8 6 5 7 11 13 15
3 5 4 -0 7 4 4 2 2 3 1 2 -1 3 3 5 9 8 5 6 4 7 18 7 2 0 7 18 9 11 13 13 12 10 10 10 12 12 12 12 10 8 8
5 3 2 9 5 5 5 -1 -0 3 2 3 3 1 8 4 7 2 8 4 12 1 8 20 7 4 6 7 18 10 9 11 12 12 12 14 12 7 7 8 7 5 5
3 3 -2 3 11 7 10 4 -0 1 2 2 3 0 1 3 6 8 3 11 -7 8 5 24 16 5 5 5 20 10 8 10 10 12 11 6 9 9 7 7 8 6 9
Height
5830 5828 5827 5825 5823 5822 5820 5818 5817 5815 5813 5812 5811 5810 5810 5807 5808 5808 5808 5805 5805 5804 5802 5803 5802 5802 5802 5802 5803 5803 5803 5803 5803 5803 5803 5803 5803 5803 5803 5803 5802 5802 5802
5823 5822 5820 5817 5814 5812 5810 5809 5806 5805 5804 5802 5800 5798 5798 5798 5796 5795 5795 5795 5795 5793 5792 5791 5792 5792 5792 5792 5792 5792 5792 5792 5793 5793 5793 5793 5794 5794 5794 5794 5794 5794 5794
5815 5813 5811 5808 5805 5802 5800 5798 5796 5795 5792 5789 5790 5788 5786 5784 5783 5783 5782 5781 5781 5781 5781 5779 5779 5781 5781 5781 5781 5780 5780 5780 5781 5782 5782 5783 5784 5784 5785 5785 5785 5785 5786
5805 5802 5800 5798 5795 5792 5790 5787 5784 5783 5781 5778 5776 5776 5774 5773 5771 5769 5768 5768 5767 5766 5766 5767 5767 5767 5769 5769 5769 5770 5769 5768 5770 5770 5771 5772 5773 5774 5775 5775 5775 5776 5777
5794 5791 5788 5785 5783 5781 5778 5775 5773 5771 5769 5767 5766 5764 5763 5762 5760 5758 5756 5754 5754 5752 5751 5751 5753 5755 5754 5756 5757 5758 5759 5759 5759 5760 5760 5760 5762 5764 5764 5764 5764 5764 5765
5782 5778 5775 5773 5770 5769 5766 5763 5762 5760 5759 5758 5757 5755 5752 5749 5747 5744 5742 5739 5737 5736 5735 5736 5737 5740 5743 5742 5745 5747 5742 5746 5747 5749 5748 5748 5749 5752 5753 5753 5753 5753 5752
5769 5767 5764 5761 5758 5756 5754 5753 5752 5752 5750 5747 5746 5743 5741 5736 5732 5728 5723 5719 5717 5714 5714 5717 5719 5722 5726 5730 5731 5731 5726 5732 5736 5736 5736 5737 5739 5741 5744 5742 5739 5741 5742
5758 5754 5750 5748 5746 5746 5745 5745 5744 5743 5740 5736 5733 5730 5727 5723 5716 5709 5702 5695 5692 5689 5691 5695 5699 5704 5708 5711 5715 5718 5719 5723 5726 5723 5726 5725 5728 5728 5732 5732 5731 5731 5732
5748 5745 5743 5741 5740 5740 5739 5738 5735 5733 5730 5725 5720 5717 5714 5709 5703 5689 5680 5671 5667 5668 5670 5674 5680 5686 5691 5695 5700 5705 5707 5713 5716 5714 5716 5716 5717 5717 5719 5722 5723 5723 5724
5742 5739 5737 5735 5734 5732 5731 5729 5726 5723 5719 5715 5710 5705 5700 5693 5684 5678 5660 5652 5648 5650 5653 5659 5665 5671 5675 5681 5686 5691 5695 5699 5703 5703 5706 5706 5707 5708 5710 5712 5712 5713 5714
5734 5731 5730 5729 5727 5725 5723 5720 5717 5713 5709 5705 5702 5697 5689 5678 5665 5652 5649 5640 5634 5638 5642 5650 5653 5663 5663 5667 5673 5678 5682 5687 5692 5692 5693 5694 5695 5698 5698 5701 5701 5702 5703
5728 5725 5723 5721 5720 5718 5715 5711 5708 5704 5701 5699 5695 5688 5680 5671 5657 5644 5636 5628 5628 5631 5634 5639 5638 5639 5654 5659 5663 5669 5670 5675 5678 5680 5683 5679 5681 5685 5685 5689 5689 5690 5691
5722 5719 5717 5715 5713 5711 5709 5706 5703 5700 5697 5694 5689 5682 5673 5664 5652 5642 5635 5628 5629 5630 5631 5634 5635 5640 5648 5652 5655 5657 5661 5663 5665 5666 5669 5669 5671 5674 5675 5676 5678 5679 5679
5717 5715 5712 5711 5709 5708 5705 5703 5700 5697 5693 5689 5683 5676 5668 5659 5650 5641 5635 5631 5630 5630 5631 5633 5635 5639 5641 5646 5644 5648 5649 5651 5653 5655 5658 5659 5661 5663 5664 5665 5666 5667 5667
5712 5711 5710 5709 5708 5705 5702 5699 5696 5693 5689 5685 5679 5673 5666 5658 5650 5641 5634 5632 5631 5630 5631 5632 5633 5634 5637 5639 5639 5641 5642 5643 5645 5647 5650 5651 5652 5653 5653 5654 5655 5655 5654
5710 5708 5707 5706 5704 5702 5699 5696 5692 5689 5685 5680 5676 5670 5664 5658 5650 5643 5636 5632 5630 5629 5629 5629 5628 5629 5629 5631 5631 5632 5634 5635 5637 5638 5639 5640 5641 5642 5642 5641 5642 5641 5642
5707 5706 5704 5702 5700 5698 5695 5691 5688 5685 5681 5677 5672 5667 5662 5657 5651 5645 5639 5634 5631 5628 5627 5626 5626 5625 5624 5623 5623 5623 5625 5626 5627 5627 5629 5629 5629 5630 5629 5629 5628 5628 5627
5703 5702 5700 5698 5696 5693 5690 5687 5684 5680 5676 5672 5668 5664 5659 5654 5650 5645 5640 5635 5632 5629 5626 5623 5621 5619 5617 5617 5617 5617 5617 5616 5616 5617 5617 5617 5618 5618 5617 5616 5615 5615 5614
5698 5697 5695 5693 5690 5687 5684 5681 5677 5674 5671 5667 5663 5659 5654 5650 5646 5642 5638 5634 5631 5627 5624 5622 5619 5616 5613 5611 5610 5609 5609 5609 5608 5607 5607 5607 5607 5606 5605 5604 5604 5603 5602
5693 5691 5689 5687 5684 5681 5678 5675 5672 5668 5665 5661 5657 5653 5649 5644 5641 5637 5634 5630 5627 5624 5621 5618 5616 5614 5611 5609 5606 5605 5603 5602 5601 5601 5599 5599 5598 5597 5595 5595 5594 5593 5592
5687 5685 5682 5680 5677 5674 5672 5669 5666 5663 5660 5656 5652 5648 5644 5640 5636 5632 5629 5626 5623 5619 5617 5614 5611 5608 5606 5604 5602 5600 5598 5597 5596 5594 5592 5591 5590 5589 5587 5586 5584 5582 5580
5679 5677 5675 5673 5670 5667 5665 5662 5660 5657 5654 5651 5647 5643 5639 5635 5632 5628 5624 5620 5616 5613 5610 5608 5605 5602 5600 5598 5595 5593 5591 5589 5588 5586 5583 5582 5580 5578 5576 5574 5572 5569 5567
5672 5670 5668 5666 5663 5660 5658 5656 5653 5650 5647 5644 5641 5637 5633 5630 5626 5622 5619 5615 5611 5608 5604 5600 5597 5594 5592 5589 5587 5584 5582 5580 5577 5576 5574 5571 5569 5566 5564 5562 5559 5557 5554
5662 5661 5659 5657 5655 5652 5649 5647 5645 5642 5639 5636 5633 5630 5626 5622 5619 5615 5611 5608 5605 5601 5597 5593 5590 5586 5583 5580 5577 5574 5572 5569 5567 5565 5562 5560 5556 5553 5550 5548 5545 5542 5539
5652 5650 5648 5646 5644 5642 5639 5636 5634 5632 5629 5626 5623 5620 5617 5613 5610 5606 5602 5598 5595 5591 5588 5583 5579 5576 5572 5569 5566 5563 5560 5558 5555 5553 5551 5548 5545 5542 5538 5534 5531 5528 5525
5639 5637 5635 5633 5631 5629 5628 5625 5623 5621 5618 5615 5612 5609 5606 5603 5600 5596 5592 5588 5584 5580 5576 5572 5569 5566 5562 5558 5554 5551 5549 5546 5543 5541 5539 5537 5533 5530 5526 5521 5516 5514 5509